Lid_Strength_Index
7 11 14 11 10 10 11 12 13 10 10 11 12 11 10 9 9 11 10 9 9 7 5 3 3 3 2 2 2 1 1 1 1 1 2 2 1 1 1 1 0 0 0 0
10 13 9 8 9 10 11 13 13 10 12 13 12 12 10 10 10 9 9 9 9 9 7 5 3 3 2 2 2 2 1 1 1 1 1 1 1 1 1 1 0 0 0 0
12 10 8 9 10 11 11 12 13 13 12 12 14 14 12 10 9 9 9 10 9 10 9 7 4 3 3 3 2 2 1 1 1 1 1 1 1 1 2 1 1 1 0 0
10 8 9 10 11 10 13 10 10 11 14 17 13 18 13 11 9 8 9 10 10 11 10 9 5 4 3 2 2 2 1 1 1 1 1 2 2 3 1 1 1 0 1 0
11 10 11 11 11 9 11 10 11 12 13 14 14 17 14 12 12 10 8 8 10 10 10 10 7 4 2 2 2 2 1 1 1 1 1 1 2 1 1 1 1 1 1 1
10 7 8 9 8 8 9 11 11 13 14 18 15 16 16 13 12 10 9 7 7 8 9 9 9 6 3 3 3 2 2 2 1 1 1 1 2 2 2 2 2 1 1 1
11 11 10 8 10 8 9 12 18 19 19 20 17 17 15 12 11 10 10 10 10 9 7 7 9 9 7 5 3 3 3 3 2 2 1 1 1 2 2 2 1 2 1 1
15 17 11 9 10 12 11 12 17 22 21 20 18 19 16 10 10 10 11 12 11 11 10 11 9 8 8 7 5 4 4 3 3 2 2 2 1 1 1 1 1 1 1 1
14 15 10 9 8 9 12 13 11 17 22 20 18 15 12 10 11 10 10 11 11 11 9 10 10 9 9 9 9 7 6 6 4 3 3 2 2 2 2 2 2 2 2 2
12 16 12 11 8 10 10 9 14 14 22 22 18 17 16 14 11 11 11 11 12 11 11 11 10 10 9 10 10 9 9 9 7 6 3 2 2 2 1 2 1 1 1 1
11 13 15 13 13 13 14 12 12 13 15 20 20 17 13 12 11 12 12 11 11 12 11 10 10 9 9 8 9 9 9 9 8 8 6 4 4 3 2 2 2 2 2 2
11 14 17 15 14 13 12 11 12 15 17 16 17 17 12 12 12 12 12 11 12 11 10 10 10 9 9 8 7 7 7 8 8 7 7 7 6 5 4 3 2 2 3 4
12 15 18 16 14 14 14 13 11 13 14 17 19 17 12 12 12 12 12 11 11 11 10 10 9 9 9 8 7 7 6 7 7 7 7 7 7 7 7 6 4 4 5 5
10 14 16 18 16 14 16 13 12 13 17 16 15 15 14 14 13 12 12 12 12 11 10 10 9 9 9 8 7 7 6 6 7 7 7 8 8 7 6 7 7 7 6 7
11 17 15 14 14 13 13 13 13 13 13 15 14 14 12 12 12 12 12 11 11 11 11 10 10 9 9 9 8 7 7 7 7 7 8 7 7 6 7 9 10 9 9 9
11 18 16 18 14 14 14 12 12 12 12 13 13 14 12 10 10 11 11 11 11 11 10 10 9 9 8 8 8 7 7 7 7 7 8 8 9 10 10 10 12 12 13 12
13 17 17 22 15 15 17 14 13 12 11 12 15 13 12 12 12 11 10 11 10 10 10 9 9 8 8 8 7 8 7 8 8 8 10 10 11 11 12 12 13 13 13 12
15 15 16 19 18 22 16 11 11 12 11 10 11 11 11 10 10 10 10 10 9 9 9 9 9 8 8 7 8 7 8 9 10 11 12 12 12 12 13 13 13 13 13 13
11 14 18 19 22 17 15 14 13 13 13 10 11 10 10 10 10 10 9 9 10 10 9 9 9 8 8 8 8 9 10 11 12 12 13 13 12 13 13 13 13 13 13 14
12 12 15 17 22 22 17 13 11 11 16 12 11 11 11 10 13 11 9 10 10 10 10 10 10 9 9 8 10 11 12 12 12 12 13 13 13 12 12 13 13 14 13 14
15 15 16 19 22 18 13 13 11 18 16 12 10 10 10 11 10 11 11 11 11 11 11 11 11 12 12 12 11 12 12 12 12 14 14 15 15 14 13 13 14 13 14 13
15 16 16 19 22 19 13 14 14 13 13 12 11 10 11 10 11 11 11 12 11 12 13 13 13 14 14 13 12 13 13 14 15 15 15 17 17 15 14 13 13 14 13 14
17 13 15 14 16 13 12 13 11 10 11 12 11 10 10 10 11 12 12 13 14 14 14 15 15 15 16 15 15 14 16 15 16 16 16 16 16 15 15 15 14 14 14 14
14 12 14 15 14 14 12 12 11 11 10 10 10 11 10 11 11 12 13 14 14 15 15 16 16 16 17 17 16 16 16 16 15 16 17 17 16 16 15 15 15 15 16 16
15 12 16 15 15 14 14 12 11 11 12 11 12 12 11 12 13 13 14 15 15 15 16 16 16 17 17 17 18 18 17 17 16 16 17 17 16 16 17 17 17 16 16 15
14 13 14 14 13 11 11 11 11 12 12 12 12 13 12 12 13 14 15 15 16 17 17 17 17 18 19 19 19 19 18 17 17 18 18 18 18 19 18 18 18 14 14 14